Weather reports worldwide

Advertisment
St. James's Park, United Kingdom (3770): temperature & dewpoint: 19.03.2017 21:00:00 - 25.03.2017 21:00:00 (GMT)St. James's Park, United Kingdom (3770): temperature -20cm & temperature -100cm: 19.03.2017 21:00:00 - 25.03.2017 21:00:00 (GMT)St. James's Park, United Kingdom (3770): precipitation: 19.03.2017 21:00:00 - 25.03.2017 21:00:00 (GMT)
Date & Time tt [°C] td [°C] tt -20cm [°C] tt -100cm [°C] rr [mm]
25.03.2017 21:00:00 9,0 -5,8 - - 0,0
25.03.2017 20:00:00 9,9 -7,5 - - 0,0
25.03.2017 19:00:00 11,0 -7,3 - - 0,0
25.03.2017 18:00:00 12,5 -7,1 - - 0,0
25.03.2017 17:00:00 13,8 -7,8 - - 0,0
25.03.2017 16:00:00 14,7 -5,5 - - 0,0
25.03.2017 15:00:00 14,7 -3,1 - - 0,0
25.03.2017 14:00:00 14,8 -3,4 - - 0,0
25.03.2017 13:00:00 14,5 -1,4 - - 0,0
25.03.2017 12:00:00 14,0 -1,2 - - 0,0
25.03.2017 11:00:00 12,7 1,1 - - 0,0
25.03.2017 10:00:00 12,0 4,1 - - 0,0
25.03.2017 09:00:00 9,2 3,4 9,4 9,7 0,0
25.03.2017 08:00:00 7,3 3,1 - - 0,0
25.03.2017 07:00:00 5,8 2,8 - - 0,0
25.03.2017 06:00:00 5,5 2,8 - - 0,0
25.03.2017 05:00:00 6,1 2,9 - - 0,0
25.03.2017 04:00:00 6,2 3,3 - - 0,0
25.03.2017 03:00:00 6,1 3,3 - - 0,0
25.03.2017 02:00:00 6,4 3,3 - - 0,0
25.03.2017 01:00:00 6,8 3,5 - - 0,0
25.03.2017 00:00:00 6,9 3,3 - - 0,0
24.03.2017 23:00:00 7,1 3,2 - - 0,0
24.03.2017 22:00:00 7,6 3,3 - - 0,0
24.03.2017 21:00:00 8,3 3,1 - - 0,0
24.03.2017 20:00:00 9,3 4,1 - - 0,0
24.03.2017 19:00:00 9,9 4,3 - - 0,0
24.03.2017 18:00:00 11,3 5,3 - - 0,0
24.03.2017 17:00:00 13,1 4,0 - - 0,0
24.03.2017 16:00:00 13,4 4,5 - - 0,0
24.03.2017 15:00:00 13,2 5,9 - - 0,0
24.03.2017 14:00:00 12,2 6,4 - - 0,0
24.03.2017 13:00:00 10,1 5,8 - - 0,0
24.03.2017 12:00:00 9,9 6,0 - - 0,0
24.03.2017 11:00:00 9,0 5,6 - - 0,0
24.03.2017 10:00:00 8,9 5,9 - - 0,0
24.03.2017 09:00:00 8,7 5,9 9,5 9,7 0,0
24.03.2017 08:00:00 8,3 5,5 - - 0,0
24.03.2017 07:00:00 8,0 5,1 - - 0,0
24.03.2017 06:00:00 8,0 5,0 - - 0,0
24.03.2017 05:00:00 7,6 5,1 - - 0,0
24.03.2017 04:00:00 7,2 5,1 - - 0,0
24.03.2017 03:00:00 7,2 4,9 - - 0,0
24.03.2017 02:00:00 6,9 4,7 - - 0,0
24.03.2017 01:00:00 7,0 4,7 - - 0,0
24.03.2017 00:00:00 7,3 4,7 - - 0,0
23.03.2017 23:00:00 7,5 4,9 - - 0,0
23.03.2017 22:00:00 7,6 4,7 - - 0,0
23.03.2017 21:00:00 8,0 4,3 - - 0,0
23.03.2017 20:00:00 8,7 4,2 - - 0,0
23.03.2017 19:00:00 9,4 3,9 - - 0,0
23.03.2017 18:00:00 10,3 3,7 - - 0,0
23.03.2017 17:00:00 11,3 3,4 - - 0,0
23.03.2017 16:00:00 11,6 3,2 - - 0,0
23.03.2017 15:00:00 11,2 3,4 - - 0,0
23.03.2017 14:00:00 11,2 3,4 - - 0,0
23.03.2017 13:00:00 11,2 3,5 - - 0,0
23.03.2017 12:00:00 11,0 4,9 - - 0,0
23.03.2017 11:00:00 10,5 5,5 - - 0,0
23.03.2017 10:00:00 9,9 6,3 - - 0,0
23.03.2017 09:00:00 8,7 5,9 9,5 9,7 0,0
23.03.2017 08:00:00 8,2 5,9 - - 0,0
23.03.2017 07:00:00 7,8 5,9 - - 0,0
23.03.2017 06:00:00 7,6 6,1 - - 0,0
23.03.2017 05:00:00 7,4 6,2 - - 0,6
23.03.2017 04:00:00 7,6 6,0 - - 0,2
23.03.2017 03:00:00 7,3 6,2 - - 0,4
23.03.2017 02:00:00 7,0 6,1 - - 0,4
23.03.2017 01:00:00 6,8 5,7 - - 0,8
23.03.2017 00:00:00 6,8 4,9 - - 0,4
22.03.2017 23:00:00 7,1 4,9 - - 0,0
22.03.2017 22:00:00 6,2 5,1 - - 0,0
22.03.2017 21:00:00 6,8 4,9 - - 0,0
22.03.2017 20:00:00 7,5 5,2 - - 0,0
22.03.2017 19:00:00 8,0 5,1 - - 0,0
22.03.2017 18:00:00 9,0 4,7 - - 0,0
22.03.2017 17:00:00 9,9 4,3 - - 0,0
22.03.2017 16:00:00 10,0 4,7 - - 0,0
22.03.2017 15:00:00 9,0 5,2 - - 0,0
22.03.2017 14:00:00 8,6 5,6 - - 1,0
22.03.2017 13:00:00 7,5 5,4 - - 0,8
22.03.2017 12:00:00 7,3 5,6 - - 1,0
22.03.2017 11:00:00 7,0 4,7 - - 0,6
22.03.2017 10:00:00 7,7 4,6 - - 0,2
22.03.2017 09:00:00 7,3 4,2 9,7 9,7 0,8
22.03.2017 08:00:00 7,7 2,6 - - 0,0
22.03.2017 07:00:00 6,9 2,3 - - 0,0
22.03.2017 06:00:00 6,6 2,4 - - 0,0
22.03.2017 05:00:00 6,6 2,5 - - 0,0
22.03.2017 04:00:00 6,5 2,2 - - 0,0
22.03.2017 03:00:00 6,4 1,8 - - 0,0
22.03.2017 02:00:00 7,0 1,7 - - 0,0
22.03.2017 01:00:00 6,7 1,7 - - 0,0
22.03.2017 00:00:00 7,3 2,0 - - 0,0
21.03.2017 23:00:00 7,0 2,3 - - 0,0
21.03.2017 22:00:00 6,9 2,5 - - 0,0
21.03.2017 21:00:00 7,5 2,0 - - 0,0
21.03.2017 20:00:00 8,0 1,1 - - 0,0
21.03.2017 19:00:00 8,6 0,4 - - 0,0
21.03.2017 18:00:00 9,3 1,1 - - 0,0
21.03.2017 17:00:00 10,9 0,5 - - 0,0
21.03.2017 16:00:00 10,8 -0,5 - - 0,0
21.03.2017 15:00:00 11,0 -2,4 - - 0,0
21.03.2017 14:00:00 11,6 -0,7 - - 0,0
21.03.2017 13:00:00 11,2 -0,4 - - 0,0
21.03.2017 12:00:00 11,7 2,3 - - 0,0
21.03.2017 11:00:00 10,1 0,6 - - 0,0
21.03.2017 10:00:00 9,0 0,0 - - 0,0
21.03.2017 09:00:00 7,0 -1,5 10,2 9,7 0,0
21.03.2017 08:00:00 5,9 0,3 - - 0,0
21.03.2017 07:00:00 5,0 0,7 - - 0,0
21.03.2017 06:00:00 4,9 1,1 - - 0,0
21.03.2017 05:00:00 5,9 1,2 - - 0,0
21.03.2017 04:00:00 6,3 2,2 - - 0,0
21.03.2017 03:00:00 7,2 3,5 - - 0,0
21.03.2017 02:00:00 7,0 4,3 - - 0,0
21.03.2017 01:00:00 7,2 4,7 - - 0,0
21.03.2017 00:00:00 7,1 4,6 - - 0,0
20.03.2017 23:00:00 7,7 4,4 - - 0,0
20.03.2017 22:00:00 8,2 4,1 - - 0,0
20.03.2017 21:00:00 8,7 4,8 - - 0,0
20.03.2017 20:00:00 9,3 5,6 - - 0,0
20.03.2017 19:00:00 9,6 6,1 - - 0,0
20.03.2017 18:00:00 11,0 7,0 - - 0,0
20.03.2017 17:00:00 11,3 7,5 - - 0,0
20.03.2017 16:00:00 11,9 8,5 - - 1,4
20.03.2017 15:00:00 11,5 9,6 - - 0,2
20.03.2017 14:00:00 12,1 8,4 - - 0,0
20.03.2017 13:00:00 12,7 7,8 - - 0,0
20.03.2017 12:00:00 12,6 9,6 - - 0,0
20.03.2017 11:00:00 12,1 10,2 - - 0,0
20.03.2017 10:00:00 12,3 10,0 - - 0,0
20.03.2017 09:00:00 11,9 10,0 10,7 9,7 0,0
20.03.2017 08:00:00 11,3 10,2 - - 0,0
20.03.2017 07:00:00 11,3 10,1 - - 0,0
20.03.2017 06:00:00 11,3 9,9 - - 0,0
20.03.2017 05:00:00 11,1 9,9 - - 0,2
20.03.2017 04:00:00 10,9 10,1 - - 0,0
20.03.2017 03:00:00 11,3 10,0 - - 0,8
20.03.2017 02:00:00 11,8 9,6 - - 0,2
20.03.2017 01:00:00 12,1 9,4 - - 0,0
20.03.2017 00:00:00 12,3 9,3 - - 0,0
19.03.2017 23:00:00 12,4 9,5 - - 0,0
19.03.2017 22:00:00 12,2 9,5 - - 0,0
19.03.2017 21:00:00 12,5 9,2 - - 0,0

tt = temperature
td = dewpoint
tt -20cm = temperature -20cm
tt -100cm = temperature -100cm
rr = precipitation

Next stations